FW1901 Weather Reports


time (UTC)temp
F
wind
direction
speed
knots
gust
knots
rain 1hr
in
rain 24hr
in
rain mn
in
humidity
%
barometer
mb
20260504000104 59 245 3.5 11.3 0.00 0.00 0.00 56 1009.3
20260503234604 59 198 1.7 7.8 0.00 0.00 0.00 55 1009.3
20260503234104 59 217 2.6 7.8 0.00 0.00 0.00 55 1009.3
20260503233604 59 291 1.7 7.0 0.00 0.00 0.00 56 1009.3
20260503233104 59 249 1.7 6.1 0.00 0.00 0.00 55 1009.3
20260503231604 59 241 2.6 8.7 0.00 0.00 0.00 54 1009.6
20260503230104 59 176 3.5 10.4 0.00 0.00 0.00 53 1009.6
20260503224604 59 235 2.6 8.7 0.00 0.00 0.00 51 1009.6
20260503224103 59 177 4.3 11.3 0.00 0.00 0.00 52 1009.6
20260503223104 60 219 1.7 13.0 0.00 0.00 0.00 52 1009.7
20260503221103 60 222 4.3 14.8 0.00 0.00 0.00 50 1009.7
20260503220604 60 230 5.2 12.2 0.00 0.00 0.00 50 1009.4
20260503220104 61 251 5.2 13.0 0.00 0.00 0.00 50 1009.7
20260503214604 61 243 4.3 13.9 0.00 0.00 0.00 50 1010.1
20260503214104 61 254 7.8 14.8 0.00 0.00 0.00 49 1010.0
20260503213104 61 245 5.2 13.0 0.00 0.00 0.00 50 1010.3
20260503211603 61 227 4.3 10.4 0.00 0.00 0.00 47 1010.4
20260503211104 62 233 4.3 13.9 0.00 0.00 0.00 50 1010.3
20260503210603 61 207 5.2 13.9 0.00 0.00 0.00 50 1010.5
20260503210103 60 203 5.2 11.3 0.00 0.00 0.00 50 1010.6
20260503203603 61 266 6.1 13.9 0.00 0.00 0.00 47 1011.1
20260503203104 61 264 2.6 15.6 0.00 0.00 0.00 48 1011.2
20260503201603 61 260 4.3 14.8 0.00 0.00 0.00 49 1011.8
20260503201104 61 244 6.1 14.8 0.00 0.00 0.00 49 1012.1
20260503200603 61 207 6.1 13.0 0.00 0.00 0.00 48 1012.3
20260503200104 61 213 3.5 11.3 0.00 0.00 0.00 47 1012.3
20260503194604 61 152 6.1 15.6 0.00 0.00 0.00 47 1012.7
20260503193603 61 254 1.7 10.4 0.00 0.00 0.00 49 1012.9
20260503193103 60 237 2.6 10.4 0.00 0.00 0.00 48 1013.1
20260503191603 60 255 4.3 11.3 0.00 0.00 0.00 48 1013.7
20260503191104 61 290 2.6 13.9 0.00 0.00 0.00 48 1013.5
20260503190603 61 268 4.3 13.9 0.00 0.00 0.00 50 1013.2
20260503190104 61 238 3.5 11.3 0.00 0.00 0.00 47 1013.3
20260503184603 62 234 2.6 13.0 0.00 0.00 0.00 47 1013.3
20260503183603 61 227 5.2 12.2 0.00 0.00 0.00 49 1013.3
20260503183103 61 235 3.5 12.2 0.00 0.00 0.00 49 1013.3
20260503181603 60 269 3.5 10.4 0.00 0.00 0.00 49 1013.9
20260503181103 61 272 4.3 10.4 0.00 0.00 0.00 46 1014.1
20260503180603 61 245 4.3 12.2 0.00 0.00 0.00 47 1014.2
20260503180103 61 256 4.3 14.8 0.00 0.00 0.00 49 1014.3
20260503174603 60 246 4.3 10.4 0.00 0.00 0.00 49 1014.7
20260503173603 60 238 4.3 12.2 0.00 0.00 0.00 49 1015.0
20260503173103 59 246 4.3 12.2 0.00 0.00 0.00 49 1014.9
20260503171603 58 263 5.2 11.3 0.00 0.00 0.00 49 1015.3
20260503171103 58 282 2.6 12.2 0.00 0.00 0.00 50 1015.3
20260503170103 59 241 7.8 14.8 0.00 0.00 0.00 47 1015.5
20260503160104 59 216 4.3 17.4 0.00 0.00 0.00 49 1016.1
20260503150605 56 257 4.3 10.4 0.00 0.00 0.00 49 1016.6
20260503150104 56 173 3.5 15.6 0.00 0.00 0.00 49 1016.6
20260503140103 52 219 3.5 8.7 0.00 0.00 0.00 55 1017.0
20260503131103 47 219 3.5 10.4 0.00 0.00 0.00 63 1017.0
20260503130603 47 219 2.6 11.3 0.00 0.00 0.00 62 1017.1
20260503120104 41 219 1.7 5.2 0.00 0.00 0.00 72 1016.9
20260503110603 39 3 0.0 0.0 0.00 0.00 0.00 75 1016.4
20260503081602 39 3 0.0 0.0 0.00 0.01 0.00 77 1016.3
20260503081103 39 3 0.0 0.0 0.00 0.01 0.00 77 1016.3
20260503080602 39 3 0.0 0.0 0.00 0.01 0.00 77 1016.3
20260503080103 39 3 0.0 0.0 0.00 0.01 0.00 77 1016.3
20260503054603 37 3 0.0 0.0 0.00 0.01 0.00 85 1016.8
20260503054102 37 3 0.0 0.0 0.00 0.01 0.00 85 1016.8
20260503053603 37 3 0.0 0.0 0.00 0.01 0.00 85 1016.9
20260503053103 37 3 0.0 0.0 0.00 0.01 0.00 85 1016.9
20260503051603 37 3 0.0 0.0 0.00 0.01 0.00 85 1017.0
20260503051103 37 3 0.0 0.0 0.00 0.01 0.00 85 1016.9
20260503050602 37 5 0.0 0.0 0.00 0.01 0.00 85 1017.0
20260503044602 37 312 0.0 0.0 0.00 0.01 0.00 85 1017.0
20260503044102 37 312 0.0 0.0 0.00 0.01 0.00 85 1017.0
20260503043602 37 312 0.0 0.0 0.00 0.01 0.00 85 1017.0
20260503043103 37 312 0.0 0.0 0.00 0.01 0.00 85 1017.0
20260503041602 37 312 0.0 0.9 0.00 0.01 0.00 85 1017.1
20260503041103 37 312 0.0 0.0 0.00 0.01 0.00 85 1017.1
20260503040603 37 312 0.0 0.0 0.00 0.01 0.00 85 1017.0
20260503034603 38 312 0.0 0.0 0.00 0.01 0.01 84 1017.0
20260503034102 38 312 0.0 0.0 0.00 0.01 0.01 84 1017.0
20260503033103 38 312 0.0 0.0 0.00 0.01 0.01 83 1017.0
20260503031602 39 312 0.0 0.0 0.00 0.01 0.01 83 1017.1
20260503031102 39 312 0.0 0.9 0.00 0.01 0.01 82 1017.1
20260503030602 39 312 0.0 0.9 0.00 0.01 0.01 81 1017.1
20260503024603 40 312 0.0 0.0 0.00 0.01 0.01 80 1017.1
20260503024103 40 312 0.0 0.0 0.00 0.01 0.01 80 1017.1
20260503023602 41 312 0.0 0.0 0.00 0.01 0.01 79 1017.1
20260503023102 41 312 0.0 0.0 0.00 0.01 0.01 79 1017.1
20260503021102 42 312 0.0 0.0 0.00 0.01 0.01 77 1016.9
20260503020602 42 312 0.0 0.0 0.00 0.01 0.01 75 1016.9
20260503020104 42 312 0.0 0.0 0.00 0.01 0.01 75 1016.8
20260503014603 43 312 0.0 0.0 0.00 0.01 0.01 72 1016.6
20260503014102 44 312 0.0 0.0 0.00 0.01 0.01 71 1016.6
20260503013601 44 312 0.0 0.9 0.00 0.01 0.01 69 1016.6
20260503013103 44 312 0.0 0.9 0.00 0.01 0.01 69 1016.5
20260503011602 45 312 0.0 0.9 0.00 0.01 0.01 65 1016.5
20260503010602 46 312 0.0 0.0 0.00 0.01 0.01 64 1016.4
20260503004602 48 312 0.0 0.9 0.00 0.01 0.01 58 1016.4
20260503004102 48 312 0.0 0.9 0.00 0.01 0.01 53 1016.4
20260503003603 48 312 0.0 1.7 0.00 0.01 0.01 54 1016.4
20260503003102 49 313 0.9 2.6 0.00 0.01 0.01 56 1016.4
20260503001103 50 219 0.0 1.7 0.00 0.01 0.01 53 1016.3